Other Public Products
Issued by NWS Grand Forks, ND

Home | Current Version | Previous Version | Text Only | Print | Product List | Glossary On
Versions: 1 2 3 4 5 6 7 8 9 10 11 12 13 14 15 16 17 18 19 20 21 22 23 24 25 26 27 28 29 30 31 32 33 34 35 36 37 38 39 40 41 42 43 44 45 46 47 48 49 50
000
FPUS83 KFGF 232031
OPUFGF
PRAIRIE TO PINES WEATHER ROUNDUP
NATIONAL WEATHER SERVICE EASTERN NORTH DAKOTA/GRAND FORKS ND
300 PM CDT TUE SEP 23 2014

 **SATELLITE DATA USED TO AUGMENT SKY COVER AT AUTOMATED STATIONS**
 *****  WEATHER ACROSS EASTERN NORTH DAKOTA  *****

CITY           SKY/WX    TMP DP  RH WIND       PRES   REMARKS
GRAND FORKS    MOSUNNY   73  57  57 S16G23    29.99F
GRAND FORKS AF MOSUNNY   76  59  55 S16       29.99S
GRAND CITY NWS   N/A     75 N/A N/A S20         N/A
BUXTON           N/A     74  57  55 S12G28      N/A
DEVILS LAKE    SUNNY     75  57  53 S21G29    29.93S
FARGO          SUNNY     76  50  40 S25G37    30.03S
WAHPETON ARPT  PTCLDY    66  46  48 S20G25    30.06F
$$

 *****  WEATHER ACROSS CENTRAL AND WESTERN NORTH DAKOTA  *****

CITY           SKY/WX    TMP DP  RH WIND       PRES   REMARKS
JAMESTOWN      CLOUDY    66  57  72 S16       29.97F
BISMARCK       CLOUDY    67  57  70 SE16      29.93S
MINOT          SUNNY     80  56  43 S16       29.85F
MINOT AFB      SUNNY     79  59  50 S15       29.84F
GARRISON         N/A     76  59  55 S13G20    29.88R
WILLISTON      SUNNY     81  55  40 VRB5      29.83F
DICKINSON      SUNNY     79  57  46 S8        29.86F
HETTINGER      SUNNY     76  57  51 SE9       29.90S
$$

 *****  OTHER OBSERVATIONS NORTHEAST NORTH DAKOTA  *****

CITY           SKY/WX    TMP DP  RH WIND       PRES   REMARKS
WALHALLA         N/A     77  59  53 S16G25    29.93F
LANGDON        FAIR      77  57  50 S23G33    29.94F
CAVALIER       FAIR      77  59  53 S16G22    29.94F
GRAFTON        FAIR      77  59  53 S21G26    29.96F
CANDO          FAIR      77  57  50 S24G36    29.92F
FORT TOTTEN      N/A     75  57  52 S14       29.95S
ROLLA          FAIR      77  55  47 S24G35    29.91S
RUGBY          FAIR      77  57  50 S20G28    29.89S
 ***** THE ABOVE OBSERVATIONS ARE NON NWS ARE NOT QUALITY
        CONTROLLED AND MAY MIS-REPORT RAIN FOR SNOW...
$$

 *****  OTHER OBSERVATIONS SOUTHEAST NORTH DAKOTA *****

CITY           SKY/WX    TMP DP  RH WIND       PRES   REMARKS
COOPERSTOWN    NOT AVBL
VALLEY CITY    FAIR      68  57  68 S16G26    30.00S
OAKES            N/A     63  55  77 SE23G29   30.02S
GWINNER        MOCLDY    66  52  59 S21       30.04F
SHEYENNE NWR     N/A     71  54  54 S14       29.95S
BUFFALO          N/A     72  50  45 SE18        N/A
WYNDMERE         N/A     70  50  49 S13         N/A
 ***** THE ABOVE OBSERVATIONS ARE NON NWS ARE NOT QUALITY
       CONTROLLED AND MAY MIS-REPORT RAIN FOR SNOW...
$$

  *****  WEATHER ACROSS NORTHERN MINNESOTA  *****

CITY           SKY/WX    TMP DP  RH WIND       PRES   REMARKS
FLAG ISLAND    SUNNY     66  55  68 SE13      30.01F
WARROAD        SUNNY     79  59  50 S8G16     30.02F
ROSEAU         SUNNY     81  57  44 S17G23    30.00F
HALLOCK        SUNNY     79  57  47 S20G25    29.96F
THF RVR FALLS  SUNNY     75  54  46 S17       30.02S
HALSTAD          N/A     75  48  38 S24         N/A
FOSSTON        MOSUNNY   72  50  46 S14       30.06F
BAUDETTE       SUNNY     75  53  46 S16       30.05F
WASKISH        SUNNY     75  55  50 S5        30.07F
CROOKSTON      MOSUNNY   77  57  50 SW20G26   30.02S
$$
  *****  WEATHER ACROSS CENTRAL AND WEST MINNESOTA  *****

CITY           SKY/WX    TMP DP  RH WIND       PRES   REMARKS
BEMIDJI        MOSUNNY   72  48  42 S12G18    30.09S
PARK RAPIDS    PTSUNNY   74  50  42 SW17G28   30.10F
WADENA         MOSUNNY   70  52  52 S16G23    30.10S
DETROIT LAKES  MOSUNNY   72  52  49 S18       30.08F
MOORHEAD       MOSUNNY   73  48  40 S15G23    30.05S
FERGUS FALLS   MOSUNNY   66  46  48 S17G25    30.09S
ELBOW LAKE     FAIR      63  50  62 S17       30.10F
MORRIS MN      CLOUDY    63  50  63 S10       30.09F
STAPLES        MOSUNNY   70  52  52 S10       30.11F
WHEATON        LGT RAIN  57  54  88 SE13      30.10S
$$
  *****  WEATHER ELSEWHERE ACROSS MINNESOTA  *****

CITY           SKY/WX    TMP DP  RH WIND       PRES   REMARKS
DULUTH         SUNNY     73  49  42 SW15      30.17F
INTRNTL FALLS  SUNNY     74  50  42 S10G21    30.10F
ELY            SUNNY     73  46  38 S9        30.15F
CLOQUET        SUNNY     72  46  40 S10G16    30.17F
BRAINERD       PTSUNNY   73  51  46 S16       30.13F
HIBBING        SUNNY     74  48  39 SW8G17    30.15F
ALEXANDRIA     PTSUNNY   66  53  63 S16       30.13F
SAINT CLOUD    MOSUNNY   74  52  46 S14       30.14F
MINNEAPOLIS    PTSUNNY   71  49  45 S12G25    30.17F
$$

  *****  WEATHER ACROSS SOUTH DAKOTA  *****

CITY           SKY/WX    TMP DP  RH WIND       PRES   REMARKS
SIOUX FALLS    LGT RAIN  59  56  89 SE16      30.07F
BROOKINGS      NOT AVBL
WATERTOWN      LGT RAIN  58  56  93 S14       30.04F
HURON          CLOUDY    59  55  87 SE14G24   30.00F
SISSETON         N/A     62  54  74 S16G24    30.05F
ABERDEEN       LGT RAIN  58  55  90 S18G26    30.00F
MITCHELL       CLOUDY    60  56  86 SE20G28   30.01F
PIERRE         CLOUDY    67  57  70 SE17      29.89F
MOBRIDGE       CLOUDY    64  57  78 SE14G23   29.91S
RAPID CITY     PTSUNNY   79  53  40 N5        29.93S
$$

  *****  SOME WEATHER IN NEARBY STATES *****

CITY           SKY/WX    TMP DP  RH WIND       PRES   REMARKS
GLASGOW MT     SUNNY     81  49  32 W15       29.85F
GREAT FALLS MT MOSUNNY   79  46  31 SW10      29.98F
CHEYENNE WY    MOSUNNY   73  39  29 NW20G35   30.16S
SCOTTSBLUFF NE SUNNY     84  46  26 W15G22    30.00F
OMAHA NE       CLOUDY    69  54  58 S20G25    30.12F
DES MOINES IA  CLOUDY    72  51  47 S13       30.19F
DAVENPORT IA   SUNNY     74  43  32 S6        30.27F
CHICAGO IL     MOSUNNY   71  46  40 CALM      30.30F
EAU CLAIRE WI  MOSUNNY   73  50  44 S14       30.21F
LA CROSSE WI   MOSUNNY   76  52  43 S9        30.23F
$$

  *****  SOME NATIONAL WEATHER *****

CITY           SKY/WX    TMP DP  RH WIND       PRES   REMARKS
LA GUARDIA NY  PTSUNNY   71  42  35 NW5       30.30F
RALEIGH NC     CLOUDY    61  50  67 N7        30.31F
ATLANTA GA     MOSUNNY   76  55  48 E17G23    30.18F
NEW ORLEANS LA MOSUNNY   83  54  36 N8        30.05F
OKLAHOMA CITY  MOSUNNY   81  52  36 SE15      30.13F
ALBUQUERQUE NM MOSUNNY   75  57  53 SW8       30.23F
SALT LAKE CITY MOSUNNY   81  46  29 CALM      30.13F
LOS ANGELES CA MOSUNNY   73  62  68 W12       29.96F
BOISE ID       CLOUDY    83  46  27 S8        29.98F
SEATTLE WA     CLOUDY    66  58  75 W5        29.84S
$$

*** WEATHER ACROSS MANITOBA...SASKATCHEWAN AND ONTARIO ***
                ***ONTARIO***

CITY           SKY/WX    TMP DP  RH WIND       PRES   REMARKS
GERALDTON      MOSUNNY   64  55  72 SE9       30.19F
THUNDER BAY    SUNNY     72  52  49 SE7       30.16F
SIOUX LOOKOUT  MOSUNNY   73  52  46 SW9       30.08F
TORONTO        MOSUNNY   72  50  46 W9G18     30.30R
BIG TROUT LK   SUNNY     64  52  63 S13G18    29.91F HAZE
PICKLE LAKE    PTSUNNY   75  48  38 SW18G25   30.04F
DRYDEN         SUNNY     73  48  40 S20       30.08F
KENORA         MOSUNNY   73  50  43 S16G23    30.05
$$
                *** MANITOBA***

CITY           SKY/WX    TMP DP  RH WIND       PRES   REMARKS
BRANDON        SUNNY     81  59  47 S17G26    29.86
DAUPHIN        SUNNY     81  57  44 SW14      29.80S
ISLAND LAKE    PTSUNNY   79  50  36 SW9       29.80F
PILOT MOUND      N/A     77  55  47 S25G35      N/A
THE PAS        PTSUNNY   84  54  34 SW6       29.65S
THOMPSON       CLOUDY    77  54  44 S13G20    29.62F
WINNIPEG       MOSUNNY   79  57  47 S21G29    29.93F
LYNN LAKE      SUNNY     75  50  41 NW13G18   29.63S
CHURCHILL      PTSUNNY   63  52  67 SW13G18   29.52
GILLAM         PTSUNNY   77  52  41 SW16      29.61F
$$
                ***SASKATCHEWAN***

CITY           SKY/WX    TMP DP  RH WIND       PRES   REMARKS
ESTEVAN        SUNNY     81  57  44 SE7       29.83F
KINDERSLEY     PTSUNNY   79  46  31 NW13G20   29.82
LLOYDMINSTER   CLOUDY    72  48  43 NW15      29.84
PRINCE ALBERT  PTSUNNY   81  55  41 SW6       29.70
REGINA         MOSUNNY   82  54  36 SW7       29.78



USA.gov is the U.S. government's official web portal to all federal, state and local government web resources and services.